Flag for Japan Weather past 2 weeks in Hiroshima, Japan

Now
76 °F

Partly sunny.


Feels Like: 78 °F
Forecast: 57 / 82 °F
Wind: 9 mph from South

Location: Iwakuni Marine Corps Air Station

Current Time: May 24, 2015 at 4:42:46 PM

Latest Report: May 24, 2015 at 3:55 PM


Visibility: N/A

Pressure: 29.72 "Hg

Humidity: 58%

Dew point: 60 °F

Location of HiroshimaLocation

Historic Weather in Hiroshima — Graph

°F

Hiroshima temperature yesterday

Maximum temperature yesterday: 79 °F (at 11:55 AM)
Minimum temperature yesterday: 64 °F (at 5:55 AM)
Average temperature yesterday: 69 °F

Past Weeks' High & Low Weather Summary

 TemperatureHumidityPressure
High80 °F (May 22, 5:55 PM)100% (May 15, 10:55 PM)30.16 "Hg (May 15, 10:55 PM)
Low53 °F (May 13, 2:55 AM)37% (May 17, 3:55 PM)29.59 "Hg (May 18, 11:55 PM)
Average67 °F72%29.85 "Hg
* Reported May 9 2:55 PM — May 24 2:55 PM, Hiroshima, Weather by CustomWeather, © 2015

Note: Actual official high and low records may vary slightly from our data, if they occured in-between our weather recording intervals... More about our weather records

Advertising

Hiroshima weather history for previous 24 hours

 ConditionsComfort  
Time TempWeatherWind HumidityBarometerVisibility
2:55 PM
Sun, May 24
78 °FScattered clouds.9 mph60%29.72 "HgN/A
1:55 PM79 °FScattered clouds.8 mph56%29.75 "HgN/A
12:55 PM76 °FPartly sunny.6 mph62%29.76 "HgN/A
11:55 AM76 °FPartly sunny.6 mph60%29.79 "HgN/A
10:55 AM75 °FBroken clouds.3 mph66%29.79 "HgN/A
9:55 AM70 °FPartly sunny.5 mph73%29.80 "HgN/A
8:55 AM68 °FBroken clouds.7 mph78%29.81 "HgN/A
7:55 AM67 °FPartly sunny.6 mph79%29.83 "HgN/A
6:55 AM65 °FBroken clouds.5 mph81%29.83 "HgN/A
5:55 AM62 °FBroken clouds.7 mph86%29.83 "HgN/A
4:55 AM63 °FPartly cloudy.6 mph87%29.82 "HgN/A
3:55 AM63 °FPartly cloudy.3 mph87%29.81 "HgN/A
2:55 AM64 °FPassing clouds.5 mph84%29.82 "HgN/A
1:55 AM65 °FPassing clouds.3 mph85%29.82 "HgN/A
12:55 AM66 °FPartly cloudy.3 mph81%29.83 "HgN/A
11:55 PM
Sat, May 23
66 °FMostly cloudy.3 mph84%29.85 "HgN/A
10:55 PM67 °FMostly cloudy.3 mph81%29.86 "HgN/A
9:55 PM67 °FMostly cloudy.3 mph79%29.87 "HgN/A
8:55 PM68 °FMostly cloudy.No wind76%29.86 "HgN/A
7:55 PM69 °FMostly cloudy.3 mph79%29.86 "HgN/A
6:55 PM69 °FOvercast.3 mph79%29.85 "HgN/A
5:55 PM70 °FMore clouds than sun.No wind79%29.85 "HgN/A
4:55 PM73 °FMore clouds than sun.5 mph69%29.86 "HgN/A
Weather by CustomWeather, © 2015

See weather overviewHow to use our weather pages